[[{"header":{"parameterUnit":"m.s-1","parameterCategory":1,"la1":30.2991,"la2":30.254,"lo1":-89.0895,"lo2":-89.0444,"dy":0.0017,"dx":0.0017,"nx":28,"ny":28,"refTime":"2025-03-24T21:00:00:Z","depth":0,"parameterNumber":2,"parameterNumberName":"U-component_of_WINDS"},"data":[0,0,0,0,0,0,0,0,0,0,0,0,0,0,0,0,0,0,0,0,0,0,0,0,0,0,0,0,0,0,0,0,0,0,0,0,0,0,0,0,0,0,0,0,0,0,0,0,0,0,0,0,0,0,0,0,0,0,2.1232,2.1233,0,2.1396,2.1398,2.14,2.1441,2.144,2.1439,2.1438,2.1607,2.1612,2.1617,0,0,0,0,0,0,0,0,0,0,0,0,0,2.0952,2.0957,2.1232,2.1234,2.1236,2.1396,2.1398,2.1401,2.1442,2.144,2.1439,2.1438,2.1605,2.1611,2.1618,0,0,0,0,0,0,0,0,0,0,0,0,0,2.1091,2.0959,2.1231,2.1275,2.1281,2.1396,2.1399,2.1401,2.1442,2.144,2.1439,2.1437,2.1603,2.1611,2.1619,2.1701,0,0,2.1644,2.1647,0,0,0,0,0,0,0,0,2.1083,2.1101,2.1267,2.1273,2.1279,2.1397,2.1362,2.1502,2.1442,2.1381,2.1438,2.1436,2.1538,2.1551,2.1586,2.1709,2.1716,2.1645,2.1649,2.1653,2.1655,0,0,0,0,0,0,0,2.1073,2.1094,2.1297,2.1269,2.1277,2.1287,2.1305,2.1388,2.1466,2.1386,2.1389,2.1408,2.1541,2.1578,2.159,2.1719,2.1644,2.1652,2.1657,2.166,2.1918,2.1919,0,0,0,0,0,0,2.1056,2.1086,2.1292,2.1302,2.1175,2.1293,2.1313,2.1361,2.1465,2.148,2.141,2.141,2.1565,2.158,2.1596,2.1699,2.1653,2.1661,2.1665,2.1916,2.1918,2.192,0,0,0,0,0,0,2.105,2.1074,2.1285,2.1195,2.1222,2.13,2.1352,2.1365,2.1401,2.1483,2.1497,2.1433,2.1564,2.1585,2.1675,2.1706,2.1664,2.1672,2.1913,2.1916,2.1919,2.1906,0,0,0,0,0,0,2.1042,2.1071,2.1103,2.1195,2.1227,2.1361,2.1354,2.1369,2.1416,2.1417,2.1509,2.1522,2.1564,2.1662,2.1683,2.1716,2.1678,2.1911,2.1915,2.1918,2.1904,2.1908,2.1911,0,0,0,0,0,2.1031,2.1093,2.1105,2.1129,2.1269,2.1362,2.138,2.1428,2.1418,2.1451,2.1503,2.152,2.1699,2.1671,2.1695,2.1731,2.1909,2.1914,2.1918,2.1902,2.1907,2.1911,0,0,0,0,0,0,2.1002,2.1106,2.112,2.1213,2.1279,2.1369,2.1412,2.1431,2.1501,2.1499,2.1555,2.1575,2.1661,2.1706,2.1672,2.1816,2.1804,2.1813,2.1784,2.1789,2.1793,2.178,2.1685,0,0,0,0,0,2.1007,2.1074,2.1161,2.1235,2.1267,2.1334,2.1376,2.1407,2.1477,2.1505,2.1564,2.1631,2.1703,2.1749,2.1819,2.1911,2.1931,2.1947,2.1951,2.1954,2.1961,2.2012,2.202,2.1934,2.1934,2.1934,0,0,2.1017,2.1081,2.1121,2.1231,2.1285,2.1353,2.1357,2.1429,2.148,2.1516,2.1604,2.165,2.1729,2.182,2.1863,2.1859,2.1989,2.1959,2.1961,2.1966,2.2017,2.2025,2.2032,2.1937,2.1937,2.1936,0,0,2.1069,2.1125,2.1193,2.1247,2.133,2.1374,2.139,2.1478,2.151,2.16,2.1628,2.169,2.1812,2.1867,2.1911,2.1985,2.2002,2.2006,2.2025,2.2075,2.2082,2.2088,2.2114,2.2122,2.2013,2.2013,2.2013,0,2.1071,2.1175,2.1225,2.1296,2.1343,2.1379,2.1448,2.1499,2.1599,2.1631,2.1626,2.178,2.1836,2.194,2.1958,2.1993,2.2013,2.1995,2.2077,2.2084,2.209,2.2115,2.2125,2.2013,2.2013,2.2013,2.2013,0,2.1172,2.1244,2.1289,2.1386,2.1439,2.1508,2.1568,2.1616,2.1642,2.1687,2.1778,2.1846,2.1931,2.1958,2.1985,2.2066,2.2061,2.2066,2.2055,2.2097,2.2122,2.2132,2.2013,2.2013,2.2013,2.2013,0,0,2.121,2.1334,2.135,2.1394,2.1488,2.1545,2.1616,2.1699,2.1738,2.1807,2.1868,2.1971,2.1976,2.2026,2.2059,2.2102,2.2156,2.2102,2.2104,2.2108,2.225,2.2245,2.2255,2.2169,2.2171,2.2172,2.2243,0,2.1273,2.1402,2.1449,2.1554,2.1621,2.1657,2.1719,2.1783,2.1827,2.189,2.1939,2.2011,2.2012,2.2042,2.2087,2.214,2.2185,2.2136,2.2225,2.2228,2.2203,2.2268,2.2264,2.2327,2.2253,2.2255,2.2256,0,2.1364,2.1434,2.1546,2.1632,2.1662,2.1717,2.1797,2.1857,2.1931,2.196,2.2016,2.2046,2.2122,2.2107,2.2212,2.2178,2.2218,2.2249,2.2253,2.2262,2.2243,2.2278,2.2348,2.2357,2.2272,2.227,2.2269,0,2.1379,2.1501,2.1584,2.1621,2.1724,2.1762,2.1806,2.1879,2.1926,2.1996,2.2027,2.2105,2.2148,2.2207,2.2258,2.2243,2.2358,2.2348,2.2384,2.2383,2.2406,2.2403,2.2482,2.2433,2.2433,2.2433,2.2432,0,2.1444,2.1511,2.1592,2.1643,2.1719,2.1773,2.1847,2.1894,2.1958,2.2019,2.2055,2.2111,2.2175,2.2239,2.2279,2.236,2.2379,2.2404,2.2414,2.2401,2.2397,2.2426,2.2423,2.2435,2.2435,2.2434,2.2434,0,2.1473,2.153,2.1623,2.1713,2.1737,2.1789,2.1866,2.1916,2.1962,2.2038,2.2059,2.2131,2.2209,2.2266,2.2366,2.2393,2.2479,2.249,2.2454,2.2459,2.2491,2.2487,2.259,2.2606,2.2547,2.2548,2.2548,0,2.151,2.1562,2.1658,2.1701,2.1746,2.1815,2.1863,2.1919,2.1968,2.2056,2.2096,2.2176,2.2243,2.2365,2.2426,2.2503,2.2515,2.2546,2.2527,2.2512,2.2515,2.251,2.2516,2.2548,2.2549,2.2549,2.2549,0,2.1569,2.1595,2.1664,2.1742,2.1799,2.1864,2.1929,2.1962,2.203,2.2083,2.2163,2.2214,2.2317,2.2396,2.2479,2.2525,2.2548,2.2555,2.2567,2.2553,2.253,2.2542,2.246,2.2552,2.2552,2.2552,2.2551,2.2551,2.1603,2.1651,2.1726,2.1801,2.1856,2.1916,2.1968,2.2021,2.2089,2.2176,2.2206,2.2288,2.2361,2.2475,2.2522,2.2587,2.2587,2.2605,2.2609,2.2612,2.2611,2.2521,2.2603,2.2603,2.2603,2.2603,2.2603,0,2.1663,2.1714,2.1782,2.1872,2.1932,2.1949,2.2022,2.207,2.2143,2.2209,2.2274,2.2366,2.2443,2.2511,2.2591,2.263,2.2643,2.2649,2.2646,2.2656,2.2607,2.2588,2.2637,2.2637,2.2637,2.2637,2.2637,2.2637,2.1702,2.1784,2.1819,2.1929,2.1979,2.206,2.21,2.2156,2.2209,2.231,2.2374,2.2418,2.2485,2.2571,2.2642,2.266,2.2687,2.2691,2.2711,2.2664,2.266,2.2656,2.2638,2.2696,2.2696,2.2754,2.2755,2.2755]},{"header":{"parameterUnit":"m.s-1","parameterCategory":1,"la1":30.2991,"la2":30.254,"lo1":-89.0895,"lo2":-89.0444,"dy":0.0017,"dx":0.0017,"nx":28,"ny":28,"refTime":"2025-03-24T21:00:00:Z","depth":0,"parameterNumber":3,"parameterNumberName":"V-component_of_WINDS"},"data":[0,0,0,0,0,0,0,0,0,0,0,0,0,0,0,0,0,0,0,0,0,0,0,0,0,0,0,0,0,0,0,0,0,0,0,0,0,0,0,0,0,0,0,0,0,0,0,0,0,0,0,0,0,0,0,0,0,0,1.4936,1.4936,0,1.4941,1.4941,1.4941,1.4946,1.4946,1.4946,1.4946,1.4952,1.4952,1.4952,0,0,0,0,0,0,0,0,0,0,0,0,0,1.4929,1.4929,1.4936,1.4936,1.4936,1.4941,1.4941,1.4941,1.4946,1.4946,1.4946,1.4947,1.4952,1.4952,1.4952,0,0,0,0,0,0,0,0,0,0,0,0,0,1.4933,1.4929,1.4936,1.4939,1.4939,1.4941,1.4941,1.4941,1.4946,1.4946,1.4946,1.4947,1.4952,1.4952,1.4952,1.4952,0,0,1.4953,1.4953,0,0,0,0,0,0,0,0,1.4933,1.4933,1.4938,1.4939,1.4939,1.4943,1.4941,1.4945,1.4946,1.4944,1.4946,1.4947,1.4949,1.495,1.495,1.4952,1.4952,1.4953,1.4953,1.4953,1.4953,0,0,0,0,0,0,0,1.4933,1.4933,1.4938,1.4938,1.4939,1.494,1.4941,1.4942,1.4946,1.4944,1.4944,1.4945,1.4949,1.495,1.4951,1.4952,1.4953,1.4953,1.4953,1.4953,1.4953,1.4953,0,0,0,0,0,0,1.4932,1.4933,1.4938,1.4938,1.4936,1.494,1.4941,1.4942,1.4946,1.4947,1.4945,1.4945,1.495,1.495,1.4951,1.495,1.4953,1.4953,1.4953,1.4953,1.4953,1.4953,0,0,0,0,0,0,1.4932,1.4932,1.4937,1.4936,1.4936,1.494,1.4941,1.4942,1.4943,1.4946,1.4947,1.4945,1.495,1.4951,1.4951,1.495,1.4953,1.4953,1.4954,1.4953,1.4953,1.4949,0,0,0,0,0,0,1.4931,1.4932,1.4932,1.4936,1.4936,1.4938,1.4941,1.4942,1.4943,1.4943,1.4947,1.4948,1.495,1.4951,1.4952,1.4951,1.4953,1.4954,1.4954,1.4953,1.4949,1.4949,1.4948,0,0,0,0,0,1.4931,1.493,1.4932,1.4932,1.4936,1.4938,1.4938,1.4941,1.4943,1.4943,1.4945,1.4947,1.495,1.4951,1.4952,1.4951,1.4954,1.4954,1.4953,1.4949,1.4949,1.4948,0,0,0,0,0,0,1.4927,1.4931,1.4933,1.4933,1.4935,1.4939,1.4939,1.4941,1.4942,1.4943,1.4946,1.4947,1.4948,1.4949,1.495,1.495,1.4952,1.4952,1.4949,1.4949,1.4948,1.4948,1.4954,0,0,0,0,0,1.4926,1.4927,1.493,1.493,1.4931,1.4935,1.4936,1.4938,1.494,1.4941,1.4943,1.4946,1.4947,1.4948,1.4949,1.4949,1.495,1.4949,1.4949,1.4948,1.4948,1.4948,1.4948,1.4953,1.4953,1.4953,0,0,1.4924,1.4926,1.4927,1.493,1.4931,1.4932,1.4936,1.4937,1.4937,1.4941,1.4942,1.4944,1.4947,1.4947,1.4947,1.4948,1.4947,1.4948,1.4948,1.4948,1.4948,1.4948,1.4947,1.4953,1.4953,1.4953,0,0,1.4921,1.4923,1.4923,1.4925,1.4927,1.493,1.493,1.4933,1.4934,1.4935,1.4938,1.4939,1.4942,1.4944,1.4945,1.4942,1.4944,1.4943,1.494,1.494,1.494,1.4939,1.4939,1.4938,1.4942,1.4942,1.4942,0,1.4918,1.492,1.4923,1.4924,1.4925,1.4928,1.4928,1.493,1.4933,1.4934,1.4935,1.4938,1.494,1.4941,1.494,1.4941,1.4941,1.4942,1.494,1.4939,1.4939,1.4938,1.4938,1.4942,1.4942,1.4942,1.4942,0,1.4916,1.4917,1.4917,1.492,1.4921,1.4922,1.4925,1.4926,1.4927,1.493,1.4931,1.4933,1.4935,1.4935,1.4937,1.4937,1.4937,1.4939,1.4941,1.4938,1.4938,1.4937,1.4942,1.4942,1.4942,1.4942,0,0,1.4911,1.4915,1.4915,1.4916,1.492,1.492,1.4921,1.4923,1.4924,1.4926,1.4926,1.4928,1.493,1.4931,1.4933,1.4933,1.4931,1.4935,1.4935,1.4934,1.493,1.4929,1.4929,1.4933,1.4933,1.4933,1.493,0,1.4908,1.4909,1.4912,1.4913,1.4914,1.4917,1.4918,1.492,1.4922,1.4923,1.4925,1.4926,1.4928,1.4929,1.4929,1.4931,1.493,1.4932,1.4933,1.4933,1.4933,1.4928,1.4927,1.4925,1.493,1.493,1.493,0,1.4906,1.4907,1.4908,1.4911,1.4912,1.4912,1.4914,1.4915,1.4917,1.4919,1.492,1.4923,1.4923,1.4925,1.4926,1.4927,1.4928,1.4929,1.4929,1.4929,1.4931,1.4929,1.4924,1.4924,1.493,1.493,1.493,0,1.4902,1.4904,1.4905,1.4906,1.4909,1.491,1.4911,1.4913,1.4914,1.4916,1.4917,1.4919,1.492,1.4921,1.4924,1.4925,1.4925,1.4927,1.4926,1.4926,1.4926,1.4926,1.4921,1.4926,1.4926,1.4926,1.4926,0,1.4899,1.4899,1.4903,1.4903,1.4904,1.4907,1.4907,1.4909,1.4911,1.4912,1.4915,1.4915,1.4919,1.492,1.4922,1.4923,1.4923,1.4924,1.4925,1.4924,1.4924,1.4925,1.4925,1.4926,1.4926,1.4926,1.4926,0,1.4894,1.4897,1.4898,1.4901,1.4902,1.4902,1.4905,1.4905,1.4908,1.4908,1.4909,1.4912,1.4914,1.4916,1.4919,1.492,1.492,1.4921,1.4919,1.492,1.4919,1.4919,1.4915,1.4914,1.4919,1.4919,1.4919,0,1.4892,1.4893,1.4896,1.4897,1.4898,1.4899,1.49,1.4903,1.4904,1.4907,1.4907,1.4908,1.491,1.4912,1.4915,1.4916,1.4917,1.4916,1.4918,1.4917,1.4917,1.4917,1.4917,1.4915,1.4915,1.4915,1.4915,0,1.4888,1.489,1.4891,1.4893,1.4894,1.4896,1.4897,1.4898,1.4901,1.4902,1.4904,1.4905,1.4907,1.4908,1.491,1.4912,1.4914,1.4915,1.4914,1.4914,1.4913,1.4913,1.4918,1.4915,1.4915,1.4915,1.4915,1.4915,1.4885,1.4886,1.4888,1.4889,1.4891,1.4892,1.4893,1.4895,1.4896,1.4898,1.49,1.4901,1.4904,1.4907,1.4908,1.4909,1.491,1.491,1.491,1.491,1.4909,1.4912,1.4909,1.4909,1.4909,1.4909,1.4909,0,1.4882,1.4883,1.4885,1.4887,1.4888,1.489,1.4892,1.4893,1.4894,1.4895,1.4897,1.4898,1.49,1.4903,1.4904,1.4905,1.4906,1.4905,1.4905,1.4905,1.4908,1.4908,1.4904,1.4904,1.4904,1.4904,1.4904,1.4904,1.488,1.4881,1.4882,1.4884,1.4885,1.4887,1.4887,1.4889,1.489,1.4892,1.4893,1.4895,1.4897,1.4899,1.49,1.4901,1.4902,1.4901,1.4902,1.4905,1.4905,1.4906,1.4905,1.4901,1.4901,1.4898,1.4898,1.4898]}]]